Location: Absher
(46.5583°N, 107.9840°W)
Time: 16:33:10
(UTC+00:00)

CUTE 1.7 + AOD 2 - Visible Passes

Search period start: 20 March 2023 00:00
Search period end: 30 March 2023 00:00
Orbit: 584 x 603 km, 97.7° (Epoch: 19 March)

Date Brightness Start Highest point End Pass type
(mag) Time Alt. Az. Time Alt. Az. Time Alt. Az.
20 Mar ? 10:04:47 10° NE 10:08:13 24° E 10:08:13 24° E visible
20 Mar ? 11:40:05 10° N 11:43:52 34° WNW 11:44:51 30° W visible
21 Mar ? 10:13:40 10° NE 10:17:21 29° E 10:17:33 29° E visible
21 Mar ? 11:49:18 10° N 11:52:54 28° WNW 11:54:11 24° W visible
22 Mar ? 10:22:34 10° NNE 10:26:29 36° E 10:26:53 35° ESE visible
22 Mar ? 11:58:33 10° NNW 12:01:53 23° WNW 12:03:30 18° W visible
23 Mar ? 10:31:31 10° NNE 10:35:34 45° E 10:36:12 42° SE visible
23 Mar ? 12:07:51 10° NNW 12:10:51 19° WNW 12:12:48 14° W visible
24 Mar ? 10:40:29 10° NNE 10:44:38 57° E 10:45:29 47° SE visible
24 Mar ? 12:17:12 10° NNW 12:19:48 16° WNW 12:22:07 11° W visible
25 Mar ? 10:49:28 10° NNE 10:53:40 72° E 10:54:46 47° S visible
25 Mar ? 12:26:41 10° NNW 12:28:43 13° WNW 12:30:46 10° W visible
26 Mar ? 10:58:28 10° NNE 11:02:42 89° ESE 11:04:03 43° SSW visible
27 Mar ? 09:34:10 10° ENE 09:35:36 11° E 09:36:41 11° ESE visible
27 Mar ? 11:07:29 10° N 11:11:42 74° WNW 11:13:18 37° SSW visible
28 Mar ? 09:42:23 10° NE 09:44:42 14° E 09:45:56 13° ESE visible
28 Mar ? 11:16:30 10° N 11:20:40 59° WNW 11:22:32 30° SW visible
29 Mar ? 09:50:54 10° NE 09:53:46 18° E 09:55:09 15° ESE visible
29 Mar ? 11:25:33 10° N 11:29:37 47° WNW 11:31:46 24° SW visible
